Location: ??????
(41.3747°N, 22.5491°E)
Time: 14:33:27
(UTC+00:00)

Cosmos 1812 - Pass Details

Date: 01 December 2020
Orbit: 517 x 520 km, 82.5° (Epoch: 20 January)

Event Time Altitude Azimuth Distance (km) Brightness Sun altitude
Rises 15:55:07 0° 151° (SSE) 2,626 6.2 -10.0°
Reaches altitude 10° 15:57:43 10° 133° (SE) 1,744 5.1 -10.5°
Maximum altitude 16:00:25 19° 88° (E) 1,297 4.1 -11.0°
Enters shadow 16:01:35 16° 65° (ENE) 1,396 4.2 -11.2°
